Location: Newark
(30.0333°N, 31.2167°E)
Time: 05:35:48
(UTC+00:00)

Vanguard 3 - Pass Details

Date: 21 January 2020
Orbit: 508 x 3263 km, 33.3° (Epoch: 27 February)

Event Time Altitude Azimuth Distance (km) Brightness Sun altitude
Rises 21:05:08 0° 286° (WNW) 6,445 12.0 -72.8°
Reaches altitude 10° 21:10:02 10° 286° (WNW) 5,041 11.3 -73.7°
Enters shadow 21:11:12 13° 286° (WNW) 4,697 11.1 -73.9°
